Simultaneous Nadir Overpasses (SNOs) Predictions

Prediction of SNOs between GOES-15 and METOP-B Satellite Orbit:

Table of predicted SNOs for the next 14.0 days since TLE Epoch: 12/31/2016
Index Date Time (GOES-15) GOES-15 Lat,Lon METOP-B Lat,Lon Distance(km) Time Diff (sec)
1 01/02/2017 06:35:16 0.05,-134.66 -0.13,-135.54 100.56 80
2 01/03/2017 06:11:56 0.06,-134.61 0.95,-130.54 463.69 80
3 01/04/2017 18:31:14 -0.05,-134.53 0.05,-135.10 63.57 53
4 01/07/2017 06:31:46 0.04,-134.41 0.00,-134.68 30.43 80
5 01/09/2017 18:29:56 -0.04,-134.27 -0.02,-134.23 5.21 80
6 01/12/2017 06:25:35 0.04,-134.13 0.08,-133.81 35.40 80
7 01/13/2017 18:44:26 -0.02,-134.03 0.93,-138.37 494.65 80




NCC Satellite Simultaneous Nadir Overpasses (SNOs) Prediction Service
